GW7005 Weather Reports


time (UTC)temp
C
wind
direction
speed
KPH
gust
KPH
rain 1hr
cm
rain 24hr
cm
rain mn
cm
humidity
%
barometer
mb
20260905194555 39 207 0.0 3.2 0.00 0.00 0.00 37 1018.4
20260905193017 38 110 0.0 8.0 0.00 0.00 0.00 40 1018.4
20260905191524 38 68 1.6 6.4 0.00 0.00 0.00 40 1018.4
20260905190049 37 89 0.0 3.2 0.00 0.00 0.00 41 1018.9
20260905184554 37 160 0.0 3.2 0.00 0.00 0.00 44 1019.0
20260905183022 37 214 0.0 4.8 0.00 0.00 0.00 43 1019.1
20260905181521 36 91 0.0 1.6 0.00 0.00 0.00 48 1019.2
20260905180049 36 210 0.0 9.7 0.00 0.00 0.00 46 1019.4
20260905174535 36 113 0.0 1.6 0.00 0.00 0.00 47 1019.5
20260905173022 36 134 0.0 1.6 0.00 0.00 0.00 47 1019.6
20260905171530 36 96 0.0 3.2 0.00 0.00 0.00 48 1019.7
20260905170019 36 80 0.0 3.2 0.00 0.00 0.00 47 1019.9
20260905164544 36 119 0.0 3.2 0.00 0.00 0.00 49 1019.9
20260905163022 35 245 1.6 4.8 0.00 0.00 0.00 52 1020.1
20260905161520 35 91 0.0 3.2 0.00 0.00 0.00 53 1019.9
20260905160023 35 236 0.0 3.2 0.00 0.00 0.00 54 1019.8
20260905154549 34 203 0.0 1.6 0.00 0.00 0.00 57 1020.1
20260905153029 33 60 0.0 4.8 0.00 0.00 0.00 58 1020.4
20260905151533 33 108 0.0 1.6 0.00 0.00 0.00 59 1020.2
20260905150039 32 114 1.6 3.2 0.00 0.00 0.00 62 1020.2
20260905144522 31 100 0.0 1.6 0.00 0.00 0.00 67 1020.1
20260905143025 30 100 0.0 1.6 0.00 0.00 0.00 70 1020.3
20260905141527 29 100 0.0 1.6 0.00 0.00 0.00 74 1019.9
20260905140033 28 100 0.0 1.6 0.00 0.00 0.00 76 1019.9
20260905134540 27 100 0.0 1.6 0.00 0.00 0.00 80 1019.9
20260905133029 27 101 0.0 0.0 0.00 0.00 0.00 81 1019.9
20260905131515 26 100 0.0 0.0 0.00 0.00 0.00 82 1020.1
20260905130045 26 100 0.0 0.0 0.00 0.00 0.00 84 1019.9
20260905124516 25 100 0.0 0.0 0.00 0.00 0.00 84 1019.9
20260905123019 25 100 0.0 0.0 0.00 0.00 0.00 84 1019.9
20260905121532 25 100 0.0 0.0 0.00 0.00 0.00 82 1019.7
20260905120020 25 100 0.0 0.0 0.00 0.00 0.00 81 1019.7
20260905114521 26 100 0.0 0.0 0.00 0.00 0.00 79 1019.4
20260905113031 26 100 0.0 0.0 0.00 0.00 0.00 79 1019.3
20260905111522 26 101 0.0 1.6 0.00 0.00 0.00 79 1019.2
20260905110030 26 101 0.0 1.6 0.00 0.00 0.00 79 1019.2
20260905104520 26 100 0.0 1.6 0.00 0.00 0.00 80 1019.0
20260905103027 25 102 0.0 0.0 0.00 0.00 0.00 82 1018.8
20260905101530 25 102 0.0 1.6 0.00 0.00 0.00 84 1018.8
20260905100020 25 102 0.0 0.0 0.00 0.00 0.00 84 1018.7
20260905094523 25 102 0.0 0.0 0.00 0.00 0.00 83 1018.6
20260905093030 25 102 0.0 0.0 0.00 0.00 0.00 82 1018.6
20260905091516 26 102 0.0 0.0 0.00 0.00 0.00 80 1018.5
20260905090017 26 102 0.0 0.0 0.00 0.00 0.00 79 1018.4
20260905084523 26 102 0.0 0.0 0.00 0.00 0.00 79 1018.4
20260905083030 26 102 0.0 1.6 0.00 0.00 0.00 79 1018.3
20260905081519 26 102 0.0 0.0 0.00 0.00 0.00 79 1018.4
20260905080049 26 102 0.0 1.6 0.00 0.00 0.00 81 1018.5
20260905074540 26 102 0.0 0.0 0.00 0.00 0.00 80 1018.3
20260905073027 26 102 0.0 0.0 0.00 0.00 0.00 78 1018.4
20260905071532 26 102 0.0 0.0 0.00 0.00 0.00 78 1018.5
20260905070017 26 102 0.0 0.0 0.00 0.00 0.00 75 1018.7
20260905064547 27 102 0.0 0.0 0.00 0.00 0.00 75 1018.9
20260905063054 27 102 0.0 0.0 0.00 0.00 0.00 73 1019.1
20260905061517 27 102 0.0 1.6 0.00 0.00 0.00 72 1019.1
20260905060048 27 102 0.0 1.6 0.00 0.00 0.00 73 1019.1
20260905054516 27 102 0.0 1.6 0.00 0.00 0.00 73 1019.3
20260905053022 27 102 0.0 1.6 0.00 0.00 0.00 74 1019.3
20260905051531 27 219 0.0 1.6 0.00 0.00 0.00 75 1019.3
20260905050035 27 219 0.0 1.6 0.00 0.00 0.00 76 1019.3
20260905044517 27 219 0.0 1.6 0.00 0.00 0.00 74 1019.3
20260905043031 28 240 1.6 6.4 0.00 0.00 0.00 74 1019.2
20260905041516 28 219 0.0 1.6 0.00 0.00 0.00 73 1019.3
20260905040021 28 244 0.0 1.6 0.00 0.00 0.00 73 1019.4
20260905034526 28 244 0.0 3.2 0.00 0.00 0.00 71 1019.6
20260905033016 28 231 0.0 1.6 0.00 0.00 0.00 71 1019.6
20260905031518 29 233 0.0 4.8 0.00 0.00 0.00 70 1019.7
20260905030024 29 257 0.0 3.2 0.00 0.00 0.00 68 1019.7
20260905024533 29 254 0.0 1.6 0.00 0.00 0.00 67 1019.7
20260905023020 29 226 0.0 0.0 0.00 0.00 0.00 67 1019.7
20260905021526 29 353 0.0 0.0 0.00 0.00 0.00 67 1019.8
20260905020033 30 220 0.0 1.6 0.00 0.00 0.00 67 1019.7
20260905014522 30 214 0.0 0.0 0.00 0.00 0.00 66 1019.7
20260905013029 30 214 0.0 1.6 0.00 0.00 0.00 64 1019.7
20260905011517 31 214 0.0 1.6 0.00 0.00 0.00 63 1019.8
20260905010052 31 231 0.0 4.8 0.00 0.00 0.00 61 1019.4
20260905004518 31 228 0.0 1.6 0.00 0.00 0.00 57 1019.3